DateTimeUTC,F1_A11,F1_S11,BsB_S11,BsG_S11,BsR_S11,BbsB_S11,BbsG_S11,BbsR_S11,BaB_A11,BaG_A11,BaR_A11,Tu_S11,T_S11,Uu_S11,U_S11,P_S11,T1_A11
2021-08-24T15:00:00Z,00000200,20000000,,,,,,,0000.39,0000.00,0000.19,19.6,26.0,06.3,04.3,0679.9,31.1
2021-08-24T15:01:00Z,00000200,20000000,,,,,,,-000.23,0000.25,-000.22,19.6,26.0,06.3,04.3,0679.9,31.1
2021-08-24T15:02:00Z,00000200,20000000,,,,,,,-000.28,-000.04,0000.00,19.6,26.0,06.3,04.3,0679.9,31.1
2021-08-24T15:03:00Z,00000200,60000000,,,,,,,0001.15,0001.12,0000.84,19.6,26.0,06.3,04.3,0679.9,31.1
2021-08-24T15:04:00Z,00000200,40000000,0004.89,0004.86,0002.94,0000.43,0000.91,0000.27,0001.39,0001.07,0001.14,19.7,25.9,06.5,04.5,0681.0,31.1
2021-08-24T15:05:00Z,00000200,00000000,0005.13,0004.47,0003.24,0000.50,0000.60,0000.73,0000.99,0000.71,0000.57,19.8,25.9,06.5,04.5,0681.1,31.1
2021-08-24T15:06:00Z,00000200,00000000,0005.39,0004.17,0003.15,0000.50,0000.34,0000.31,0001.25,0001.44,0000.76,19.8,25.9,06.4,04.4,0681.1,31.1
2021-08-24T15:07:00Z,00000200,00000000,0005.43,0004.84,0002.90,0000.75,0000.81,-000.06,0001.23,0001.03,0001.28,19.8,25.9,06.4,04.4,0681.1,31.1
2021-08-24T15:08:00Z,00000200,00000000,0005.52,0004.52,0003.23,0000.47,0000.65,0000.41,0000.89,0001.13,0000.62,19.8,25.9,06.3,04.4,0681.0,31.1
2021-08-24T15:09:00Z,00000200,00000000,0005.61,0004.51,0002.83,0000.49,0000.51,0000.02,0001.46,0000.98,0001.17,19.8,25.9,06.4,04.4,0681.0,31.1
2021-08-24T15:10:00Z,00000200,00000000,0005.67,0004.63,0003.47,0000.83,0000.88,0000.42,0001.38,0001.02,0000.46,19.8,25.9,06.4,04.4,0681.0,31.1
2021-08-24T15:11:00Z,00000200,00000000,0005.77,0004.20,0003.02,-000.52,0000.72,0000.37,0000.94,0001.45,0001.00,19.8,25.9,06.4,04.5,0681.0,31.1
2021-08-24T15:12:00Z,00000200,00000000,0005.86,0004.40,0003.30,0001.24,0000.81,0000.46,0001.25,0000.86,0000.59,19.9,25.9,06.4,04.5,0681.0,31.1
2021-08-24T15:13:00Z,00000200,00000000,0005.69,0004.57,0003.24,0001.07,0000.77,0000.35,0001.63,0000.89,0001.53,19.9,25.9,06.5,04.5,0681.0,31.1
2021-08-24T15:14:00Z,00000200,00000000,0005.74,0004.66,0002.96,0000.50,0001.03,0000.25,0000.83,0001.25,0000.82,19.9,25.9,06.6,04.6,0681.0,31.1
2021-08-24T15:15:00Z,00000200,00000000,0005.32,0004.79,0003.21,0000.91,0000.65,0000.50,0001.54,0001.76,0001.30,19.8,25.9,06.6,04.6,0681.0,31.1
2021-08-24T15:16:00Z,00000200,00000000,0005.58,0004.75,0002.93,0001.39,0000.84,0000.15,0001.08,0001.04,0000.65,19.8,25.9,06.6,04.6,0681.0,31.1
2021-08-24T15:17:00Z,00000200,00000000,0005.48,0004.81,0003.25,0000.94,0000.60,0000.19,0001.16,0001.05,0000.89,19.8,25.9,06.6,04.6,0681.0,31.1
2021-08-24T15:18:00Z,00000200,00000000,0005.79,0004.64,0002.78,0000.62,0000.65,0000.08,0001.70,0001.34,0001.06,19.8,25.9,06.7,04.7,0681.1,31.1
2021-08-24T15:19:00Z,00000200,00000000,0005.37,0004.79,0003.26,0000.28,0000.43,0000.28,0001.18,0001.15,0000.90,19.8,25.9,06.9,04.8,0681.1,31.1
2021-08-24T15:20:00Z,00000200,00000000,0006.46,0004.76,0003.51,0000.29,0000.73,0000.43,0001.71,0001.25,0001.07,19.8,25.9,06.9,04.8,0681.0,31.1
2021-08-24T15:21:00Z,00000200,00000000,0005.66,0004.32,0003.62,0001.25,0000.79,0000.39,0001.02,0001.38,0000.87,19.8,25.9,06.9,04.8,0681.1,31.1
2021-08-24T15:22:00Z,00000200,00000000,0006.28,0004.81,0003.27,0001.14,0000.70,0000.14,0000.96,0001.11,0001.04,19.8,25.9,07.1,04.9,0681.1,31.1
2021-08-24T15:23:00Z,00000200,00000000,0006.10,0004.98,0002.82,0000.83,0000.90,0000.24,0001.58,0001.32,0000.74,19.8,25.9,07.0,04.8,0681.0,31.1
2021-08-24T15:24:00Z,00000200,00000000,0006.02,0005.03,0003.39,0000.79,0000.65,0000.18,0001.81,0001.72,0001.31,19.8,25.9,07.2,05.0,0681.0,31.1
2021-08-24T15:25:00Z,00000200,00000000,0007.38,0004.98,0003.67,0000.85,0000.40,0000.21,0000.63,0000.39,0000.55,19.8,25.9,07.3,05.1,0681.0,31.1
2021-08-24T15:26:00Z,00000200,00000000,0005.47,0004.93,0003.44,0001.47,0000.45,0000.76,0001.75,0001.86,0001.40,19.8,25.9,07.2,05.0,0680.9,31.1
2021-08-24T15:27:00Z,00000200,00000000,0006.14,0005.15,0003.20,0000.99,0000.60,0000.05,0001.19,0000.85,0000.89,19.8,25.9,07.4,05.1,0681.0,31.1
2021-08-24T15:28:00Z,00000200,00000000,0006.31,0004.77,0003.58,0000.46,0000.40,0000.67,0001.54,0001.47,0001.18,19.8,25.9,07.4,05.2,0681.0,31.1
2021-08-24T15:29:00Z,00000200,00000000,0007.03,0005.09,0003.73,0001.40,0000.65,0000.38,0001.45,0001.09,0000.87,19.8,25.9,07.5,05.2,0680.9,31.1
2021-08-24T15:30:00Z,00000200,00000000,0006.54,0005.44,0003.42,0000.87,0000.81,0000.52,0001.52,0001.45,0001.17,19.8,25.9,07.4,05.1,0681.0,31.1
2021-08-24T15:31:00Z,00000200,00000000,0006.20,0004.98,0003.16,0000.35,0000.44,0000.24,0001.22,0001.62,0001.09,19.8,25.9,07.5,05.2,0680.8,31.1
2021-08-24T15:32:00Z,00000200,00000000,0006.56,0004.66,0003.13,0000.53,0000.30,0000.21,0001.78,0001.13,0000.89,19.8,25.9,07.5,05.2,0680.9,31.1
2021-08-24T15:33:00Z,00000200,00000000,0005.53,0005.03,0003.60,0000.41,0000.68,0000.47,0001.07,0001.31,0001.54,19.8,25.9,07.7,05.3,0680.8,31.1
2021-08-24T15:34:00Z,00000200,00000000,0005.80,0005.09,0003.43,0000.65,0000.52,0000.35,0001.12,0000.88,0000.34,19.8,25.9,07.7,05.3,0680.6,31.1
2021-08-24T15:35:00Z,00000200,00000000,0005.98,0004.78,0003.14,0000.47,0000.35,-000.11,0001.37,0001.23,0001.25,19.8,25.9,07.7,05.3,0680.6,31.1
2021-08-24T15:36:00Z,00000200,00000000,0005.94,0004.62,0003.37,0000.66,0000.68,0000.03,0001.87,0001.51,0001.33,19.8,25.9,07.7,05.3,0680.7,31.1
2021-08-24T15:37:00Z,00000200,00000000,0006.11,0004.98,0003.40,0000.39,0000.55,0000.50,0001.17,0001.57,0001.08,19.8,25.9,07.8,05.4,0680.7,31.1
2021-08-24T15:38:00Z,00000200,00000000,0006.57,0004.57,0002.94,0001.25,0000.70,0000.27,0001.34,0000.98,0001.00,19.8,25.9,07.9,05.5,0680.7,31.1
2021-08-24T15:39:00Z,00000200,00000000,0006.39,0005.26,0003.48,0001.15,0000.50,0000.16,0001.11,0000.93,0000.65,19.8,25.9,07.9,05.5,0680.7,31.1
2021-08-24T15:40:00Z,00000200,00000000,0006.21,0004.78,0003.01,0000.44,0000.82,0000.24,0001.58,0001.24,0001.20,19.8,25.9,07.9,05.5,0680.7,31.1
2021-08-24T15:41:00Z,00000200,00000000,0005.61,0004.86,0003.87,0000.72,0000.78,0000.36,0001.05,0001.78,0000.90,19.8,25.9,08.1,05.6,0680.7,31.1
2021-08-24T15:42:00Z,00000200,00000000,0006.09,0004.88,0003.18,0000.46,0000.78,0000.43,0001.93,0001.39,0001.25,19.8,25.9,08.1,05.6,0680.8,31.1
2021-08-24T15:43:00Z,00000200,00000000,0006.16,0004.75,0003.35,0000.77,0000.61,0000.11,0001.22,0001.17,0000.84,19.8,25.9,08.1,05.6,0680.8,31.1
2021-08-24T15:44:00Z,00000200,00000000,0005.51,0004.90,0003.14,0000.99,0000.57,0000.30,0001.16,0001.34,0001.01,19.8,25.9,08.2,05.6,0680.7,31.1
2021-08-24T15:45:00Z,00000200,00000000,0006.21,0004.47,0002.88,0000.53,0000.50,0000.37,0001.04,0000.77,0000.84,19.8,25.9,08.2,05.7,0680.8,31.1
2021-08-24T15:46:00Z,00000200,00000000,0005.47,0004.67,0003.21,0001.06,0000.59,0000.16,0001.81,0001.56,0001.20,19.7,25.9,08.2,05.7,0680.7,31.1
2021-08-24T15:47:00Z,00000200,00000000,0006.09,0004.65,0003.28,0000.34,0000.49,0000.40,0001.15,0000.61,0000.85,19.8,25.8,08.3,05.7,0680.6,31.1
2021-08-24T15:48:00Z,00000200,00000000,0006.01,0004.79,0003.11,0001.30,0000.91,0000.33,0001.25,0002.02,0000.99,19.7,25.8,08.3,05.7,0680.8,31.1
2021-08-24T15:49:00Z,00000200,00000000,0006.30,0004.93,0003.10,0000.28,0000.53,0000.13,0001.75,0000.88,0000.87,19.7,25.9,08.5,05.9,0680.8,31.1
2021-08-24T15:50:00Z,00000200,00000000,0005.47,0004.83,0003.35,0001.56,0000.78,0000.46,0000.97,0001.04,0001.11,19.7,25.9,08.6,05.9,0680.8,31.1
2021-08-24T15:51:00Z,00000200,00000000,0006.23,0004.47,0002.93,0001.20,0000.19,0000.09,0000.60,0000.56,-000.12,19.7,25.9,08.6,05.9,0680.8,31.1
2021-08-24T15:52:00Z,00000200,00000000,0005.61,0004.27,0003.35,0000.70,0000.69,0000.18,0001.09,0001.36,0001.20,19.7,25.8,08.7,06.0,0680.8,31.1
2021-08-24T15:53:00Z,00000200,00000000,0006.73,0004.82,0003.45,0000.87,0000.61,0000.45,0000.83,0000.71,0000.95,19.7,25.8,08.7,06.0,0680.7,31.1
2021-08-24T15:54:00Z,00000200,00000000,0005.70,0004.13,0003.12,0001.20,0000.70,-000.20,0001.50,0001.56,0000.68,19.7,25.8,08.7,06.0,0680.7,31.1
2021-08-24T15:55:00Z,00000200,00000000,0005.85,0004.44,0003.11,0001.11,0000.45,0000.20,0001.15,0000.89,0001.07,19.7,25.8,08.7,06.0,0680.7,31.1
2021-08-24T15:56:00Z,00000200,00000000,0006.03,0004.43,0003.04,0001.05,0000.95,0000.18,0001.70,0001.44,0001.20,19.7,25.8,08.9,06.1,0680.7,31.1
2021-08-24T15:57:00Z,00000200,40000000,,,,,,,-000.48,-000.71,-000.46,19.7,25.8,08.5,05.9,0680.6,31.1
2021-08-24T15:58:00Z,00000200,60000000,,,,,,,-000.02,0000.39,-000.02,19.5,25.9,08.3,05.6,0679.7,31.1
2021-08-24T15:59:00Z,00000200,20000000,,,,,,,0000.12,0000.18,0000.21,19.5,26.0,08.5,05.7,0679.7,31.1
